{"data":{"norad_id":65905,"intl_designator":"2025-224Z","name":"STARLINK-35380","alt_names":[],"object_type":"PAYLOAD","status":"ACTIVE","operator":null,"country":"US","launch_date":"2025-10-07","launch_site_code":"AFETR","launch_vehicle":null,"mission":null,"orbit_class":"UNKNOWN","rcs_meters":null,"size_class":null,"mass_kg":null,"dimensions":null,"purposes":["comms"],"wikipedia_slug":null,"has_3d_model":false,"image_url":null,"decayed_at":null,"tle_current":{"epoch":"2026-09-19T12:14:17.913984Z","epoch_age_seconds":191748,"freshness":"STALE","line1":"1 65905U 25224Z   26262.50992956  .00023437  00000+0  70260-3 0  9999","line2":"2 65905  53.1571 190.0310 0000977  86.7018 273.4096 15.34400466 54515","mean_motion":15.34400466,"eccentricity":9.77e-5,"inclination_deg":53.1571,"raan_deg":190.031,"arg_perigee_deg":86.7018,"mean_anomaly_deg":273.4096,"bstar":0.0007026,"rev_number":5451,"period_min":93.847729579613,"perigee_km":462.0335052011,"apogee_km":463.3702051134,"semimajor_km":6840.8388551573,"source":"CELESTRAK","updated_at":"2026-09-21T09:00:35.761050Z"}}}